Regional Weather Roundup
Issued by NWS

Home | Current Version | Previous Version | Graphics & Text | Print | Product List | Glossary Off
Versions: 1 2 3 4 5 6 7 8 9 10 11 12 13 14 15 16 17 18 19 20 21 22 23 24 25 26 27 28 29 30 31 32 33 34 35 36 37 38 39 40 41 42 43 44 45 46 47 48 49 50

000
ASUS43 KMKX 292300
RWRWI

WISCONSIN REGIONAL WEATHER ROUNDUP
NATIONAL WEATHER SERVICE MILWAUKEE/SULLIVAN WI
600 PM CDT MON JUN 29 2015

NOTE: "FAIR" INDICATES FEW OR NO CLOUDS BELOW 12,000 FEET WITH NO
SIGNIFICANT WEATHER AND/OR OBSTRUCTIONS TO VISIBILITY.

WIZ001-002-006>008-014>016-023>028-300000-
NORTHWEST WISCONSIN

CITY           SKY/WX    TMP DP  RH WIND       PRES   REMARKS
SUPERIOR ARPT  SUNNY     73  64  73 W7        29.76R
ASHLAND        MOSUNNY   74  64  71 N3        29.76S
HAYWARD        PTSUNNY   69  57  65 CALM      29.79S
SIREN          CLOUDY    61  59  94 CALM      29.78S
CUMBERLAND     CLOUDY    61  59  94 SE6       29.78F
RICE LAKE      CLOUDY    64  59  85 S5        29.79S
CHETEK         CLOUDY    62  61  95 S7        29.80S
LADYSMITH      CLOUDY    63  59  87 S3        29.80F
EAU CLAIRE     LGT RAIN  61  58  90 SE5       29.78F
MENOMONIE      CLOUDY    61  61  99 SE8       29.81F
NEW RICHMOND   PTSUNNY   66  55  69 E8        29.81F
OSCEOLA        LGT RAIN  67  56  69 N8G23     29.83R
$$

WIZ003>005-009-010-017-018-300000-
NORTH CENTRAL WISCONSIN

CITY           SKY/WX    TMP DP  RH WIND       PRES   REMARKS
MANITOWISH WTR CLOUDY    64  63  99 W6        29.77S
ARBOR VITAE    CLOUDY    64  61  88 NW3       29.76F
WOODRUFF       CLOUDY    64  61  88 NW3       29.76F
RHINELANDER    CLOUDY    64  59  83 NW6       29.78R
EAGLE RIVER    CLOUDY    64  56  73 NW3       29.76R
LAND O LAKES   CLOUDY    64  60  88 W3        29.77S
PHILLIPS       CLOUDY    63  60  90 SW7       29.79R
TOMAHAWK       CLOUDY    60  58  92 CALM      29.78F
MEDFORD        CLOUDY    59  58  96 CALM      29.80S
MERRILL        LGT RAIN  62  61  95 W9        29.78S
$$

WIZ029-030-035-036-043>047-300000-
CENTRAL WISCONSIN

CITY           SKY/WX    TMP DP  RH WIND       PRES   REMARKS
WAUSAU         CLOUDY    62  58  86 W8        29.76F
MOSINEE        NOT AVBL
MARSHFIELD     LGT RAIN  61  57  87 S7        29.78F FOG
STEVENS POINT  CLOUDY    61  58  90 W3        29.79F
WAUPACA        PTSUNNY   72  64  76 S7        29.76F
WAUTOMA        NOT AVBL
WISC RAPIDS    CLOUDY    62  57  83 W8        29.82F
CAMP DOUGLAS   TSTM      70  61  73 N21G32    29.82R
$$

WIZ011>013-019>022-031-037>040-048>050-300000-
NORTHEAST WISCONSIN

CITY           SKY/WX    TMP DP  RH WIND       PRES   REMARKS
ANTIGO         CLOUDY    63  59  87 N6        29.78R
SHAWANO        PTSUNNY   70  64  82 S5        29.75F
OCONTO         CLOUDY    68  67  97 CALM      29.76R
STURGEON BAY   MOSUNNY   70  54  56 S10       29.78F
GREEN BAY      LGT RAIN  69  62  78 SW3       29.76F
MANITOWOC      NOT AVBL
APPLETON       PTSUNNY   72  61  68 SW7       29.77F
CLINTONVILLE   PTSUNNY  N/A N/A N/A S9        29.74F
OSHKOSH        CLOUDY    75  64  68 SW8       29.76F
$$

WIZ032>034-041-042-053>061-300000-
SOUTHWEST WISCONSIN

CITY           SKY/WX    TMP DP  RH WIND       PRES   REMARKS
LA CROSSE      TSTM      68  64  87 N13G21    29.79F VSB 1
SPARTA         CLOUDY    69  59  70 N15G25    29.84R
VIROQUA        CLOUDY    74  63  67 N3        29.81R
BOSCOBEL       MOSUNNY   79  64  60 NW3       29.78S HX  81
PRAIRIE DU CHI MOSUNNY   77  61  56 CALM      29.78S
PLATTEVILLE    SUNNY     79  61  54 NW8       29.80S HX  80
$$

WIZ056-057-062-063-064-067-068-300000-
SOUTH CENTRAL WISCONSIN

CITY           SKY/WX    TMP DP  RH WIND       PRES   REMARKS
REEDSBURG      MOSUNNY   76  63  62 NW7       29.78S
BARABOO/DELLS  MOSUNNY   76  60  56 NW7       29.79S
LONE ROCK      NOT AVBL
MINERAL POINT  SUNNY     79  59  50 NW7       29.80S HX  80
MADISON        PTSUNNY   75  62  64 S3        29.78S
MIDDLETON      PTSUNNY   79  61  54 S3        29.79S HX  80
WATERTOWN      PTSUNNY   73  65  77 SW3       29.78F
MONROE         LGT RAIN  70  64  83 E3        29.79S
JANESVILLE     MOSUNNY   72  61  68 VRB3      29.78F
$$

WIZ051-052-058>065-066-070>072-300000-
SOUTHEAST WISCONSIN

CITY           SKY/WX    TMP DP  RH WIND       PRES   REMARKS
MILWAUKEE      MOSUNNY   70  61  73 SE10      29.80S
WAUKESHA       MOSUNNY   72  59  64 SW6       29.81S
MILWAUKEE/TIMM NOT AVBL
RACINE         PTSUNNY   69  61  75 SE8       29.82S
BURLINGTON     MOSUNNY   71  62  72 SW5       29.80S
KENOSHA        PTSUNNY   70  62  76 SE8       29.80S
FOND DU LAC    LGT RAIN  73  63  70 S6        29.78S
SHEBOYGAN      MOSUNNY   73  59  61 S12       29.78F
WEST BEND      CLOUDY    68  61  77 E6        29.79F
JUNEAU         MOSUNNY   73  63  70 SW8       29.80R
$$

LSZ147-162-300000-
LAKE SUPERIOR

STATION/POSITION TIME  TEMP    WIND        PRES    WAVE
                       AIR SEA DIR/SP/G            HT/PER
                 (UTC) (F)     (DEG/KT/KT) (MB)    (FT/S)
W MID LAKE BUOY  2150   50 38  280/  6/  8 1007.8R   0
DEVILS ISLAND    2200   64     230/  4/  5 1007.5F
SAXON HARBOR     2200   68        CALM     1007.5
$$

LMZ867-665-643>646-300000-
LAKE MICHIGAN

STATION/POSITION TIME  TEMP    WIND        PRES    WAVE
                       AIR SEA DIR/SP/G            HT/PER
                 (UTC) (F)     (DEG/KT/KT) (MB)    (FT/S)
CHAMBERS ISLAND  2200   76     150/  7/ 12 1007.5F
S GREEN BAY BUOY 2200   75 72  180/ 12/ 16 1008.9F
N MID LAKE BUOY  2150   59 51  230/  6/  6 1008.2F   1
NORTHPORT PIER   2240   70     140/  8/ 11 1007.5F
ALGOMA LAKESHORE 2210          210/ 11/ 13   N/A
KEWAUNEE LAKESHO 2200   63     180/ 12/ 13 1008.1R
SHEBOYGAN LAKESH 2200   61     170/ 11/ 12 1009.1R
PORT WASHINGTON  2200   65     170/  6/  7 1009.8R
ATWATER BUOY     2200   62 61  150/  8/ 10 1010.6R
MILWAUKEE LAKESH 2200   61     150/  4/  6   N/A
KENOSHA   LAKESH 2200   63     160/  8/  9 1008.8F
$$

TC  - TEMPERATURE IN CELSIUS
VSB - VISIBILITY IN STATUTE MILES
WCI - WIND CHILL INDEX
HX  - HEAT INDEX




USA.gov is the U.S. government's official web portal to all federal, state and local government web resources and services.